Observations
| Time | Sensor | AQI | SAQ | Temp °C | Hum % | Pres Pa | CO μg/m³ | H₂S μg/m³ | NO μg/m³ | NO₂ μg/m³ | O₃ μg/m³ | SO₂ μg/m³ | CO₂e PPM | VOC PPM | PM1 μg/m³ | PM2.5 μg/m³ | PM4 μg/m³ | PM10 μg/m³ | TPS µm |
|---|---|---|---|---|---|---|---|---|---|---|---|---|---|---|---|---|---|---|---|
| Tuesday 11 August 2026 | |||||||||||||||||||
| 02:01 | Trim Patrick St | 1 | 12.6 | 74 | 38,460 | 0.27 | 5.34 | 3.85 | 32.14 | 9.58 | 0 | 4.57 | 8.49 | 9.33 | |||||
| 02:00 | Trim Market St | 2 | 14.3 | 66 | 57,485 | 0.27 | 0 | 2.5 | 15.69 | 35.09 | 0 | 1.43 | 2.28 | 4.92 | |||||
| 02:00 | Trim Patrick St | 1 | 12.6 | 74 | 38,460 | 0.28 | 5.14 | 3.85 | 30.77 | 11.12 | 0 | 2 | 5.64 | 6.2 | |||||
| 01:59 | Trim Market St | 2 | 14.3 | 65 | 57,496 | 0.27 | 0 | 2.61 | 15.32 | 35.78 | 0 | 1.43 | 3.76 | 5.57 | |||||
| 01:58 | Trim Market St | 2 | 14.3 | 65 | 57,508 | 0.28 | 0 | 3.05 | 13.89 | 35.06 | 0 | 1.43 | 3.28 | 4.91 | |||||
| 01:58 | Trim Patrick St | 1 | 12.6 | 74 | 38,460 | 0.28 | 4.96 | 3.85 | 30.76 | 10.77 | 0 | 3.71 | 7.07 | 7.78 | |||||
| 01:57 | Trim Market St | 2 | 14.3 | 65 | 57,519 | 0.28 | 0 | 3.01 | 14.16 | 31.5 | 0 | 2.14 | 2.78 | 4.26 | |||||
| 01:57 | Trim Patrick St | 1 | 12.6 | 74 | 38,460 | 0.28 | 4.52 | 3.81 | 28.94 | 12.13 | 0 | 2.86 | 6.36 | 6.99 | |||||
| 01:56 | Trim Market St | 2 | 14.3 | 65 | 57,527 | 0.28 | 0 | 3.2 | 14.15 | 34.11 | 0 | 1.43 | 4.27 | 7.53 | |||||
| 01:55 | Trim Market St | 2 | 14.4 | 65 | 57,537 | 0.27 | 0 | 3.07 | 14.32 | 35.17 | 0 | 1.43 | 3.28 | 4.91 | |||||
| 01:55 | Trim Patrick St | 1 | 12.6 | 73 | 38,460 | 0.28 | 5.96 | 3.82 | 34.38 | 8.88 | 0 | 3.71 | 7.8 | 8.58 | |||||
| 01:54 | Trim Market St | 2 | 14.4 | 65 | 57,547 | 0.27 | 0 | 3 | 14.03 | 30.66 | 0 | 2.14 | 3.78 | 5.56 | |||||
| 01:54 | Trim Patrick St | 1 | 12.7 | 73 | 38,460 | 0.26 | 5.37 | 3.83 | 33.85 | 9.49 | 0 | 2.86 | 7.8 | 8.58 | |||||
| 01:53 | Trim Market St | 2 | 14.4 | 65 | 57,552 | 0.28 | 0 | 2.51 | 11.9 | 45.43 | 0 | 0.71 | 3.29 | 4.91 | |||||
| 01:53 | Trim Patrick St | 1 | 12.7 | 73 | 38,460 | 0.27 | 5.71 | 3.83 | 33.84 | 10.63 | 0 | 3.71 | 7.09 | 7.8 | |||||
| 01:52 | Trim Patrick St | 1 | 12.7 | 73 | 38,460 | 0.26 | 5.06 | 3.82 | 32.03 | 10.85 | 0 | 2.86 | 6.38 | 7.02 | |||||
| 01:51 | Trim Patrick St | 1 | 12.7 | 73 | 38,460 | 0.28 | 4.83 | 3.69 | 30.65 | 12.33 | 0 | 2.86 | 7.11 | 7.82 | |||||
| 01:51 | Trim Market St | 2 | 14.4 | 65 | 57,563 | 0.28 | 0 | 2.94 | 13.74 | 37.59 | 0 | 1.43 | 2.8 | 4.25 | |||||
| 01:50 | Trim Patrick St | 1 | 12.7 | 73 | 38,460 | 0.27 | 4.96 | 3.61 | 30.65 | 12.71 | 0 | 2.86 | 7.82 | 8.6 | |||||
| 01:49 | Trim Patrick St | 1 | 12.7 | 73 | 38,460 | 0.28 | 5.11 | 3.32 | 29.29 | 12.09 | 0 | 2.86 | 7.11 | 7.82 | |||||